Thedford, NE

5:05 PM CST on February 12, 2016 (GMT -0600)
Thedford

Weather History for KTIF - September, 2013

Change the Weather History Date:

Thursday, September 12, 2013

  Actual Average (KLBF) Record (KLBF)
Temperature  
Mean Temperature 69 °F 64 °F  
Max Temperature 81 °F 80 °F 100 °F (1931)
Min Temperature 57 °F 49 °F 30 °F (1902)
Degree Days  
Heating Degree Days 0 4  
Month to date heating degree days 31  
Since 1 July heating degree days 51  
Cooling Degree Days 4 3  
Month to date cooling degree days 46  
Year to date cooling degree days 741  
Growing Degree Days 19 (Base 50)    
Moisture  
Dew Point 50 °F    
Average Humidity 59    
Maximum Humidity 94    
Minimum Humidity 27    
Precipitation  
Precipitation 0.00 in 0.04 in 1.97 in (1965)
Month to date precipitation 0.57  
Year to date precipitation 16.79  
Snow  
Snow 0.00 in 0.00 in T in (2014)
Month to date snowfall 0.0  
Since 1 July snowfall 0.0  
Since 1 September snowfall 0.0  
Snow Depth -    
Sea Level Pressure  
Sea Level Pressure 30.28 in    
Wind  
Wind Speed 4 mph (East)    
Max Wind Speed 16 mph    
Max Gust Speed 21 mph    
Visibility 9 miles    
Events Fog    
T = Trace of Precipitation, MM = Missing Value Source: NWS Daily Summary

Daily Weather History Graph

Daily Weather History Graph

Search for Another Location

Airport or City:

Trip Planner

Search our weather history database for the weather conditions in past years. The results will help you decide how hot, cold, wet, or windy it might be!

Date:

Astronomy

Sep. 12, 2013 Rise Set
Actual Time 7:19 AM CDT 7:56 PM CDT
Civil Twilight 6:51 AM CDT 8:24 PM CDT
Nautical Twilight 6:18 AM CDT 8:57 PM CDT
Astronomical Twilight 5:43 AM CDT 9:31 PM CDT
Moon 2:55 PM CDT No Moon Set
Length of Visible Light 13h 33m
Length of Day
12h 36m
Waxing Crescent, 50% of the Moon is Illuminated
Sep 12
Waxing Crescent
Sep 12
First Quarter
Sep 19
Full
Sep 26
Last Quarter
Oct 4
New

Hourly Weather History & Observations

Time (CDT) Temp. Dew Point Humidity Pressure Visibility Wind Dir Wind Speed Gust Speed Precip Events Conditions
12:15 AM 65.3 °F 60.8 °F 85% 30.25 in 10.0 mi SSW 3.5 mph - N/A   Clear
12:35 AM 64.0 °F 60.1 °F 87% 30.24 in 10.0 mi Calm Calm - N/A   Clear
12:55 AM 62.2 °F 59.5 °F 91% 30.24 in 10.0 mi Calm Calm - N/A   Clear
1:15 AM 61.5 °F 58.6 °F 90% 30.24 in 10.0 mi Calm Calm - N/A   Clear
1:35 AM 61.3 °F 58.6 °F 91% 30.25 in 10.0 mi Calm Calm - N/A   Clear
1:55 AM 61.3 °F 58.6 °F 91% 30.25 in 10.0 mi Calm Calm - N/A   Clear
2:15 AM 61.3 °F 58.8 °F 91% 30.24 in 10.0 mi Calm Calm - N/A   Clear
2:35 AM 60.1 °F 57.6 °F 91% 30.24 in 1.5 mi Calm Calm - N/A   Mist
2:55 AM 60.4 °F 58.3 °F 93% 30.24 in 2.0 mi Calm Calm - N/A   Clear
3:15 AM 59.9 °F 57.7 °F 93% 30.24 in 7.0 mi Calm Calm - N/A   Clear
3:35 AM 60.3 °F 58.1 °F 93% 30.24 in 5.0 mi WNW 3.5 mph - N/A   Clear
3:55 AM 59.9 °F 57.6 °F 92% 30.24 in 5.0 mi West 3.5 mph - N/A   Clear
4:15 AM 59.7 °F 57.4 °F 92% 30.25 in 7.0 mi Calm Calm - N/A   Clear
4:35 AM 59.2 °F 57.0 °F 93% 30.25 in 3.0 mi Calm Calm - N/A   Clear
4:55 AM 59.2 °F 57.2 °F 93% 30.25 in 4.0 mi West 4.6 mph - N/A   Clear
5:15 AM 59.5 °F 57.6 °F 93% 30.25 in 5.0 mi Calm Calm - N/A   Clear
5:35 AM 59.0 °F 57.2 °F 94% 30.26 in 4.0 mi Calm Calm - N/A   Clear
5:55 AM 58.5 °F 56.5 °F 93% 30.26 in 4.0 mi Calm Calm - N/A   Clear
6:15 AM 57.9 °F 55.9 °F 93% 30.27 in 0.5 mi Calm Calm - N/A Fog Fog
6:35 AM 59.4 °F 57.4 °F 93% 30.27 in 7.0 mi ENE 3.5 mph - N/A   Clear
6:55 AM 59.0 °F 56.8 °F 93% 30.27 in 2.0 mi Calm Calm - N/A   Clear
7:15 AM 58.3 °F 56.3 °F 93% 30.28 in 4.0 mi Calm Calm - N/A   Clear
7:35 AM 57.9 °F 55.9 °F 93% 30.29 in 7.0 mi NNE 3.5 mph - N/A   Clear
7:55 AM 58.1 °F 55.9 °F 93% 30.30 in 10.0 mi NNE 4.6 mph - N/A   Clear
8:15 AM 58.3 °F 55.6 °F 91% 30.30 in 10.0 mi NE 5.8 mph - N/A   Clear
8:35 AM 59.2 °F 54.9 °F 86% 30.31 in 10.0 mi ENE 5.8 mph - N/A   Clear
8:55 AM 60.4 °F 54.0 °F 79% 30.31 in 10.0 mi ENE 5.8 mph - N/A   Clear
9:15 AM 62.6 °F 53.6 °F 72% 30.31 in 10.0 mi East 6.9 mph - N/A   Clear
9:35 AM 64.2 °F 52.5 °F 66% 30.32 in 10.0 mi East 9.2 mph - N/A   Clear
9:55 AM 66.2 °F 51.8 °F 60% 30.32 in 10.0 mi East 8.1 mph - N/A   Clear
10:15 AM 67.3 °F 50.4 °F 55% 30.32 in 10.0 mi East 12.7 mph - N/A   Clear
10:35 AM 69.4 °F 49.3 °F 49% 30.33 in 10.0 mi East 11.5 mph 17.3 mph N/A   Clear
10:55 AM 70.5 °F 48.0 °F 45% 30.33 in 10.0 mi East 11.5 mph - N/A   Clear
11:15 AM 72.7 °F 47.5 °F 41% 30.33 in 10.0 mi East 10.4 mph 17.3 mph N/A   Clear
11:35 AM 73.9 °F 47.3 °F 39% 30.33 in 10.0 mi ENE 10.4 mph 18.4 mph N/A   Clear
11:55 AM 74.1 °F 46.9 °F 38% 30.33 in 10.0 mi East 11.5 mph 19.6 mph N/A   Clear
12:15 PM 76.1 °F 46.4 °F 35% 30.33 in 10.0 mi East 10.4 mph 17.3 mph N/A   Clear
12:35 PM 77.0 °F 45.3 °F 32% 30.33 in 10.0 mi East 12.7 mph - N/A   Clear
12:55 PM 77.9 °F 45.3 °F 31% 30.32 in 10.0 mi East 11.5 mph 17.3 mph N/A   Clear
1:15 PM 78.6 °F 45.5 °F 31% 30.31 in 10.0 mi East 11.5 mph 16.1 mph N/A   Clear
1:35 PM 79.2 °F 45.1 °F 30% 30.31 in 10.0 mi East 16.1 mph 19.6 mph N/A   Clear
1:55 PM 79.5 °F 45.1 °F 30% 30.30 in 10.0 mi ENE 10.4 mph - N/A   Clear
2:15 PM 78.8 °F 44.8 °F 30% 30.30 in 10.0 mi East 10.4 mph - N/A   Clear
2:35 PM 79.3 °F 44.6 °F 29% 30.29 in 10.0 mi East 10.4 mph 17.3 mph N/A   Clear
2:55 PM 79.5 °F 44.4 °F 29% 30.29 in 10.0 mi East 13.8 mph 20.7 mph N/A   Clear
3:15 PM 80.1 °F 44.2 °F 28% 30.28 in 10.0 mi ESE 11.5 mph 18.4 mph N/A   Clear
3:35 PM 80.1 °F 44.2 °F 28% 30.28 in 10.0 mi East 9.2 mph 18.4 mph N/A   Clear
3:55 PM 80.8 °F 44.6 °F 28% 30.27 in 10.0 mi East 9.2 mph - N/A   Clear
4:15 PM 81.3 °F 44.6 °F 27% 30.27 in 10.0 mi East 12.7 mph - N/A   Clear
4:35 PM 79.7 °F 44.2 °F 28% 30.26 in 10.0 mi East 6.9 mph - N/A   Clear
4:55 PM 78.6 °F 44.2 °F 30% 30.26 in 10.0 mi ESE 9.2 mph - N/A   Clear
5:15 PM 80.8 °F 44.2 °F 27% 30.26 in 10.0 mi ESE 8.1 mph - N/A   Clear
5:35 PM 79.5 °F 44.1 °F 28% 30.25 in 10.0 mi East 9.2 mph - N/A   Clear
5:55 PM 80.1 °F 44.1 °F 28% 30.25 in 10.0 mi ESE 10.4 mph - N/A   Clear
6:15 PM 79.2 °F 44.2 °F 29% 30.25 in 10.0 mi East 9.2 mph - N/A   Clear
6:35 PM 79.2 °F 43.5 °F 28% 30.25 in 10.0 mi East 11.5 mph - N/A   Clear
6:55 PM 77.9 °F 43.5 °F 29% 30.26 in 10.0 mi East 10.4 mph - N/A   Clear
7:15 PM 76.3 °F 44.1 °F 32% 30.26 in 10.0 mi East 8.1 mph - N/A   Clear
7:35 PM 74.3 °F 44.6 °F 35% 30.26 in 10.0 mi East 9.2 mph - N/A   Clear
7:55 PM 72.3 °F 45.1 °F 38% 30.26 in 10.0 mi East 8.1 mph - N/A   Clear
8:15 PM 69.4 °F 46.2 °F 43% 30.26 in 10.0 mi East 6.9 mph - N/A   Clear
8:35 PM 68.0 °F 46.4 °F 46% 30.27 in 10.0 mi East 6.9 mph - N/A   Clear
8:55 PM 67.1 °F 46.4 °F 47% 30.26 in 10.0 mi East 6.9 mph - N/A   Clear
9:15 PM 66.7 °F 46.4 °F 48% 30.27 in 10.0 mi East 6.9 mph - N/A   Clear
9:35 PM 66.2 °F 46.4 °F 49% 30.27 in 10.0 mi East 6.9 mph - N/A   Clear
9:55 PM 65.3 °F 46.4 °F 50% 30.27 in 10.0 mi East 6.9 mph - N/A   Clear
10:15 PM 63.7 °F 46.4 °F 53% 30.27 in 10.0 mi East 6.9 mph - N/A   Clear
10:35 PM 64.2 °F 45.9 °F 51% 30.27 in 10.0 mi ESE 4.6 mph - N/A   Clear
10:55 PM 62.6 °F 46.4 °F 55% 30.27 in 10.0 mi ESE 3.5 mph - N/A   Clear
11:15 PM 61.0 °F 46.4 °F 59% 30.27 in 10.0 mi Calm Calm - N/A   Clear
11:35 PM 61.0 °F 46.6 °F 59% 30.27 in 10.0 mi ESE 3.5 mph - N/A   Clear
11:55 PM 57.0 °F 46.8 °F 69% 30.27 in 10.0 mi Calm Calm - N/A   Clear